Volver al catálogo

STARLINK-32118

ActivoComunicacionesVLEO
NORAD 60280·PAYLOAD·🇺🇸 United States

Lanzado Jul 28, 2024 desde Cape Canaveral Space Force Station

Loading…

Próximos Pases (próximas 24 horas)

TLE

ActualizadoSource: CelesTrak SupGP

Época: Sep 15, 2026, 02:19 UTC

1 60280C 24132C   26258.09701389 -.00032572  00000+0 -96217-3 0  2584
2 60280  53.1570 250.8987 0001344  89.6129 292.2364 15.34412189    12

Sigue STARLINK-32118 en tiempo real con AllMySat

Download on the App Store